Regional Weather Roundup
Issued by NWS

Home | Current Version | Previous Version | Text Only | Print | Product List | Glossary On
Versions: 1 2 3 4 5 6 7 8 9 10 11 12 13 14 15 16 17 18 19 20 21 22 23 24 25 26 27 28 29 30 31 32 33 34 35 36 37 38 39 40 41 42 43 44 45 46 47 48 49 50
000
ASUS42 KTBW 292317
RWRFL
FLORIDA REGIONAL WEATHER ROUNDUP
NATIONAL WEATHER SERVICE TAMPA BAY RUSKIN FL
700 PM EDT WED JUL 29 2015

NOTE: "FAIR" INDICATES FEW OR NO CLOUDS BELOW 12,000 FEET WITH NO
SIGNIFICANT WEATHER AND/OR OBSTRUCTIONS TO VISIBILITY.


FLZ001>010-012>015-112-114-115-300000-
PANHANDLE FLORIDA

CITY           SKY/WX    TMP DP  RH WIND       PRES   REMARKS
PENSACOLA      LGT RAIN  81  76  84 SW6       29.96R
PENSACOLA NAS  CLOUDY    79  76  90 N3        29.96R
MILTON NAS     PTSUNNY   82  75  79 W5        29.96
CRESTVIEW      PTSUNNY   79  79 100 CALM      29.98S
DUKE FIELD     LGT RAIN  84  74  71 NE3       29.96R
VALPARAISO     PTSUNNY   86  77  74 N6        29.96R HX  97
TRI COUNTY     MOCLDY    77  75  93 VRB5      29.97R
PANAMA CITY    LGT RAIN  79  76  90 N12       29.98R FOG
TYNDALL AFB    CLOUDY    81  77  89 N2        29.95S
APALACHICOLA   LGT RAIN  82  75  79 NW7       29.94S

STATION/POSITION SKY/WX   TEMP    WIND        PRES    WAVE   SWELL
                          AIR SEA DIR/SP/G            HT/PER HT/PER
                          (F)     (DEG/KT/KT) (MB)    (FT/S) (FT/S)
30.1N   87.6W              83 85   80/  4/  6 1014.1R   1/ 3
29.2N   88.2W              88 93  250/  8/ 10 1015.2R   1/ 4
28.8N   86.0W              87 88  270/ 12/ 14 1014.5R   2/ 5
PANAMA CITY BEAC           86 85                N/A
CAPE SAN BLAS    NOT AVBL
TOWER C                    86     260/ 14/ 15 1013.8R
28.5N   84.5W              79 86  220/ 17/ 21 1014.6R   3/ 4

$$
FLZ011-016>038-118-127-128-134-139-239-300000-
NORTH FLORIDA

CITY           SKY/WX    TMP DP  RH WIND       PRES   REMARKS
MARIANNA       PTSUNNY   86  75  69 W10       29.92R HX  95
TALLAHASSEE    CLOUDY    86  75  69 SE13      29.92S THUNDER HX  95
PERRY          CLOUDY    78  78 100 E3        29.92F
CROSS CITY       N/A     77  77 100 VRB3      29.95S
LAKE CITY      PTSUNNY   77  75  94 S5        29.96R
GAINESVILLE    LGT RAIN  74  73  97 SW10      29.97S
MAYPORT NAS    MOSUNNY   84  76  76 E8        29.93S
JACKSONVILLE   PTSUNNY   86  71  60 E7        29.92R
JAX NAS        MOSUNNY   91  70  49 SE9       29.93R HX  96
JAX CRAIG      SUNNY     85  73  67 SE7       29.93R
JAX CECIL      SUNNY     88  72  58 E6        29.93R
FERNANDINA BEA FAIR      86  77  74 E7        29.92R HX  97
ST AUGUSTINE   SUNNY     84  76  76 E5        29.94S

STATION/POSITION SKY/WX   TEMP    WIND        PRES    WAVE   SWELL
                          AIR SEA DIR/SP/G            HT/PER HT/PER
                          (F)     (DEG/KT/KT) (MB)    (FT/S) (FT/S)
SHELL POINT                88     210/ 11/ 13   N/A
KEATON BEACH               78     100/  6/  6 1013.6F
CEDAR KEY                  78     160/ 13/ 14 1015.7R
FERNANDINA                 85 85                N/A
30.7N   81.3W                 83                N/A     2/11
MAYPORT                    83 82                N/A
31.4N   80.9W              82 82   80/  6/  8 1013.3R   2/ 7   2/ 7
ST AUGUSTINE               82 82   90/  2/  2 1014.4R

$$
FLZ040-043>046-052-053-057-058-063-144-300000-
INTERIOR CENTRAL FLORIDA

CITY           SKY/WX    TMP DP  RH WIND       PRES   REMARKS
OCALA          PTSUNNY   73  72  94 NW12G17   29.97F
THE VILLAGES     N/A     77  77 100 W6        29.87R
LEESBURG       PTSUNNY   78  75  90 VRB5      29.97R
SANFORD        SUNNY     83  73  72 W12       29.94R
ORLANDO EXEC   MOSUNNY   80  75  84 W12       29.95R
ORLANDO INTL   PTSUNNY   80  76  87 W7        29.95S
KISSIMMEE      MOSUNNY   81  73  78 W8        29.95S
WINTER HAVEN   CLOUDY    80  76  87 W7        29.97S
LAKELAND       PTSUNNY   81  75  83 W5        29.97S
BARTOW         FAIR      79  79 100 CALM      29.97S
OKEECHOBEE     PTSUNNY   81  72  74 SW9       29.95F

$$
FLZ041-047-054-059-064-141-147-300000-
EAST CENTRAL FLORIDA

CITY           SKY/WX    TMP DP  RH WIND       PRES   REMARKS
ORMOND BEACH   SUNNY     84  75  74 E3        29.93S
DAYTONA BEACH  MOSUNNY   87  74  64 E7        29.93S HX  95
DELAND           N/A     86  73  66 CALM      29.95S
NEW SMYRNA BEA MOSUNNY   88  75  66 NE5       29.94S HX  97
JFK SPACE CTR  MOSUNNY   87  74  65 NW8       29.92R
TITUSVILLE     MOSUNNY   84  70  61 W14       29.94R
CAPE CANAVERAL MOSUNNY   89  76  65 S8        29.92R HX  99
PATRICK AFB    MOSUNNY   88  76  66 W10       29.92R HX  98
MELBOURNE      MOSUNNY   86  73  65 W10       29.92S
VERO BEACH     PTSUNNY   88  72  58 SW10      29.94S
FT PIERCE      CLOUDY    84  74  71 SW8       29.94S
STUART         CLOUDY    81  73  78 SW9       29.96F

STATION/POSITION SKY/WX   TEMP    WIND        PRES    WAVE   SWELL
                          AIR SEA DIR/SP/G            HT/PER HT/PER
                          (F)     (DEG/KT/KT) (MB)    (FT/S) (FT/S)
28.5N   80.2W              81 82  180/ 10/ 10 1013.2F
28.9N   78.5W              75 84  200/ 25/ 31 1012.7S
TRIDENT PIER               85 77                N/A
28.4N   80.5W                 80                N/A     1/11
27.5N   80.2W                 77                N/A     1/11

$$
FLZ050-056-061-142-242-148-248-149-249-151-251-155-255-
160-260-300000-
WEST CENTRAL FLORIDA

CITY           SKY/WX    TMP DP  RH WIND       PRES   REMARKS
CRYSTAL RIVER  LGT RAIN  75  73  94 NW3       29.97F
INVERNESS      LGT RAIN  73  73 100 CALM      29.96F
BROOKSVILLE    RAIN      78  75  90 NW6       29.98R FOG
ZEPHYRHILLS    FAIR      79  73  83 CALM      29.98R
CLEARWATER     CLOUDY    81  75  82 W10       29.95F
TAMPA INTL     CLOUDY    81  76  84 SW6       29.96F
TAMPA EXEC     PTSUNNY   82  75  78 CALM      29.96F
PLANT CITY     PTSUNNY   82  77  83 W8        29.99R
MACDILL AFB    CLOUDY    81  81 100 W3        29.96F
PETER O KNIGHT PTSUNNY   82  79  89 CALM      29.96S
ST PETERSBURG  CLOUDY    82  77  84 W7        29.93F
SARASOTA       CLOUDY    82  76  81 W9        29.95S
VENICE         FAIR      82  75  78 NW10      29.97R

STATION/POSITION SKY/WX   TEMP    WIND        PRES    WAVE   SWELL
                          AIR SEA DIR/SP/G            HT/PER HT/PER
                          (F)     (DEG/KT/KT) (MB)    (FT/S) (FT/S)
CEDAR KEY                  78     160/ 13/ 14 1015.7R
28.5N   84.5W              79 86  220/ 17/ 21 1014.6R   3/ 4
27.3N   84.2W                 84                N/A     3/ 4
CLEARWATER BEACH           82 84                N/A
MIDDLE TAMPA BAY           82                   N/A
VENICE                     83 85  280/ 11/ 12 1014.2R

$$
FLZ066-069-070-075>078-162-262-165-265-300000-
SOUTHWEST FLORIDA AND KEYS

CITY           SKY/WX    TMP DP  RH WIND       PRES   REMARKS
PUNTA GORDA    CLOUDY    82  77  84 W10       29.97S
FT MYERS       CLOUDY    81  75  82 W9        29.95F
SOUTHWEST INTL CLOUDY    80  75  84 SW5       29.97S
NAPLES         CLOUDY    84  76  76 W6        29.97S
MARCO ISLAND   CLEAR     82  73  74 W6        29.97S
MARATHON       CLOUDY    89  73  59 VRB3      29.99S HX  97
KEY WEST NAS   PTSUNNY   88  74  63 N3        29.99S HX  96
KEY WEST INTL  PTSUNNY   89  77  67 NW7       30.00S HX 101

STATION/POSITION SKY/WX   TEMP    WIND        PRES    WAVE   SWELL
                          AIR SEA DIR/SP/G            HT/PER HT/PER
                          (F)     (DEG/KT/KT) (MB)    (FT/S) (FT/S)
VENICE                     83 85  280/ 11/ 12 1014.2R
NAPLES                        85                N/A
26.0N   85.6W              82 85  270/  8/ 10 1015.0F   1/11   2/11
DRY TORTUGAS               85     350/  6/  7 1015.6F
NW FL BAY                  87     290/  6/  7 1015.6
SAND KEY                   86     310/  3/  4 1015.7F
SOMBRERO KEY               87      CALM  /  1 1016.5S
LONG KEY                   87 90  290/  5/  6 1016.2F
MOLASSES REEF              86 87  220/  8/  9 1015.4F

$$
FLZ067-068-071>074-168-172>174-300000-
SOUTHEAST FLORIDA

CITY           SKY/WX    TMP DP  RH WIND       PRES   REMARKS
W PALM BEACH   CLOUDY    81  74  79 W7        29.96F
FT LAUDER-EXEC CLOUDY    84  73  69 W5        29.95F
FT LAUDERDALE  CLOUDY    84  74  71 SE6       29.95F
POMPANO BEACH  CLOUDY    84  73  69 W5        29.95F
PEMBROKE PINES CLOUDY    85  75  72 SE3       29.97F
OPA LOCKA      CLOUDY    85  75  72 E5        29.96F
MIAMI          CLOUDY    86  73  65 NE6       29.97F
WEST KENDALL   CLOUDY    89  75  63 W8        29.97S HX  99
HOMESTEAD      CLOUDY    90  75  61 SW8       29.96F HX  99

STATION/POSITION SKY/WX   TEMP    WIND        PRES    WAVE   SWELL
                          AIR SEA DIR/SP/G            HT/PER HT/PER
                          (F)     (DEG/KT/KT) (MB)    (FT/S) (FT/S)
PORT EVERGLADES            84     150/  5/  7 1014.5F
VIRGINIA KEY               86 88                N/A
LAKE WORTH                 81 82                N/A
SETTLEMENT POINT           83     260/  6/  6 1015.5F

$$



USA.gov is the U.S. government's official web portal to all federal, state and local government web resources and services.